When you browse on this site, cookies collect data to enhance your experience and personalize the content and advertising you see.
Visit our Privacy Policy to learn more. By continuing to use the site, you agree to this use of cookies and data.
  • In Hungary
  • List of Countries
  • For 7 days
  • Water Temperature
  • Satellite Maps
  • Weather Map
  • News
  • Weather Widgets
  • user-avatar
    Login

    Hourly Weather Siemianice

    Today, 26 May, Sunday

    Time Temperature Precipitation Wind Pressure Humidity
    00:00 +10°C° 0 mm 2 mps 742 mmHg 91%
    01:00 +9°C° 0 mm 2 mps 742 mmHg 92%
    02:00 +9°C° 0 mm 2 mps 742 mmHg 93%
    03:00 +9°C° 0 mm 1 mps 742 mmHg 93%
    04:00 +9°C° 0 mm 1 mps 742 mmHg 94%
    05:00 +9°C° 0 mm 2 mps 742 mmHg 89%
    06:00 +12°C° 0 mm 2 mps 742 mmHg 85%
    07:00 +13°C° 0 mm 2 mps 742 mmHg 80%
    08:00 +14°C° 0 mm 3 mps 742 mmHg 74%
    09:00 +16°C° 0 mm 3 mps 742 mmHg 68%
    10:00 +18°C° 0 mm 4 mps 742 mmHg 62%
    11:00 +19°C° 0 mm 4 mps 742 mmHg 59%
    12:00 +20°C° 0 mm 4 mps 741 mmHg 56%
    13:00 +21°C° 0 mm 4 mps 741 mmHg 53%
    14:00 +21°C° 0 mm 4 mps 741 mmHg 53%
    15:00 +21°C° 0 mm 4 mps 740 mmHg 54%
    16:00 +22°C° 0 mm 4 mps 740 mmHg 54%
    17:00 +21°C° 0 mm 3 mps 740 mmHg 60%
    18:00 +19°C° 0 mm 3 mps 740 mmHg 66%
    19:00 +18°C° 0 mm 2 mps 740 mmHg 72%
    20:00 +17°C° 0 mm 2 mps 740 mmHg 75%
    21:00 +16°C° 0 mm 2 mps 740 mmHg 78%
    22:00 +15°C° 0 mm 2 mps 740 mmHg 81%
    23:00 +14°C° 0 mm 2 mps 740 mmHg 83%

    Tomorrow, 27 May, Monday

    Time Temperature Precipitation Wind Pressure Humidity
    00:00 +14°C° 0 mm 2 mps 739 mmHg 86%
    01:00 +12°C° 0 mm 3 mps 739 mmHg 88%
    02:00 +12°C° 0 mm 3 mps 739 mmHg 89%
    03:00 +12°C° 0 mm 3 mps 738 mmHg 90%
    04:00 +11°C° 0 mm 3 mps 738 mmHg 90%
    05:00 +13°C° 0 mm 3 mps 738 mmHg 85%
    06:00 +16°C° 0 mm 3 mps 738 mmHg 79%
    07:00 +18°C° 0 mm 4 mps 738 mmHg 73%
    08:00 +19°C° 0 mm 4 mps 738 mmHg 66%
    09:00 +21°C° 0 mm 4 mps 738 mmHg 60%
    10:00 +22°C° 0 mm 5 mps 738 mmHg 54%
    11:00 +23°C° 0 mm 4 mps 738 mmHg 51%
    12:00 +25°C° 0 mm 4 mps 738 mmHg 49%
    13:00 +25°C° 0 mm 4 mps 738 mmHg 46%
    14:00 +25°C° 0 mm 3 mps 738 mmHg 48%
    15:00 +25°C° 0 mm 3 mps 737 mmHg 50%
    16:00 +25°C° 0 mm 3 mps 737 mmHg 52%
    17:00 +23°C° 0.1 mm 2 mps 737 mmHg 62%
    18:00 +21°C° 0.1 mm 2 mps 737 mmHg 71%
    19:00 +19°C° 0.1 mm 2 mps 737 mmHg 81%
    20:00 +18°C° 0.2 mm 2 mps 737 mmHg 83%
    21:00 +18°C° 0.2 mm 1 mps 737 mmHg 85%
    22:00 +18°C° 0.2 mm 1 mps 737 mmHg 87%
    23:00 +16°C° 0.4 mm 1 mps 737 mmHg 89%

    Day after tomorrow, 28 May, Tuesday

    Time Temperature Precipitation Wind Pressure Humidity
    00:00 +16°C° 0.4 mm 1 mps 736 mmHg 91%
    01:00 +16°C° 0.4 mm 1 mps 736 mmHg 93%
    02:00 +16°C° 2.1 mm 1 mps 735 mmHg 93%
    03:00 +16°C° 2.1 mm 1 mps 735 mmHg 94%
    04:00 +16°C° 2.1 mm 1 mps 734 mmHg 95%
    05:00 +16°C° 2.2 mm 1 mps 734 mmHg 95%
    06:00 +15°C° 2.2 mm 1 mps 734 mmHg 95%
    07:00 +15°C° 2.2 mm 1 mps 734 mmHg 96%
    08:00 +15°C° 1 mm 2 mps 734 mmHg 96%
    09:00 +14°C° 1 mm 3 mps 734 mmHg 96%
    10:00 +14°C° 1 mm 3 mps 734 mmHg 96%
    11:00 +13°C° 0.4 mm 4 mps 734 mmHg 95%
    12:00 +13°C° 0.4 mm 5 mps 734 mmHg 95%
    13:00 +13°C° 0.4 mm 6 mps 734 mmHg 94%
    14:00 +12°C° 0.2 mm 5 mps 734 mmHg 93%
    15:00 +12°C° 0.2 mm 5 mps 734 mmHg 92%
    16:00 +12°C° 0.2 mm 5 mps 734 mmHg 92%
    17:00 +12°C° 0.3 mm 5 mps 735 mmHg 92%
    18:00 +12°C° 0.3 mm 5 mps 735 mmHg 93%
    19:00 +10°C° 0.3 mm 5 mps 735 mmHg 94%
    20:00 +11°C° 0 mm 4 mps 736 mmHg 95%
    21:00 +10°C° 0 mm 4 mps 736 mmHg 96%
    22:00 +10°C° 0 mm 3 mps 736 mmHg 97%
    23:00 +10°C° 0 mm 3 mps 737 mmHg 97%

    29 May, Wednesday

    Time Temperature Precipitation Wind Pressure Humidity
    00:00 +9°C° 0 mm 3 mps 737 mmHg 97%
    01:00 +9°C° 0 mm 3 mps 737 mmHg 98%
    02:00 +9°C° 0 mm 3 mps 738 mmHg 98%
    03:00 +9°C° 0 mm 3 mps 738 mmHg 98%
    04:00 +9°C° 0 mm 2 mps 738 mmHg 98%
    05:00 +9°C° 0 mm 2 mps 739 mmHg 96%
    06:00 +10°C° 0 mm 2 mps 739 mmHg 94%
    07:00 +10°C° 0 mm 3 mps 739 mmHg 93%
    08:00 +11°C° 0 mm 3 mps 740 mmHg 86%
    09:00 +12°C° 0 mm 3 mps 740 mmHg 79%
    10:00 +14°C° 0 mm 3 mps 740 mmHg 73%
    11:00 +14°C° 0 mm 3 mps 740 mmHg 69%
    12:00 +16°C° 0 mm 3 mps 741 mmHg 65%
    13:00 +17°C° 0 mm 3 mps 741 mmHg 61%
    14:00 +16°C° 0.1 mm 3 mps 741 mmHg 64%
    15:00 +16°C° 0.1 mm 2 mps 741 mmHg 67%
    16:00 +16°C° 0.1 mm 2 mps 741 mmHg 71%
    17:00 +15°C° 0 mm 1 mps 742 mmHg 74%
    18:00 +15°C° 0 mm 1 mps 742 mmHg 77%
    19:00 +13°C° 0 mm 0 mps 742 mmHg 80%
    20:00 +13°C° 0.1 mm 1 mps 743 mmHg 83%
    21:00 +13°C° 0.1 mm 1 mps 743 mmHg 85%
    22:00 +12°C° 0.1 mm 1 mps 744 mmHg 88%
    23:00 +10°C° 0.1 mm 2 mps 744 mmHg 88%

    30 May, Thursday

    Time Temperature Precipitation Wind Pressure Humidity
    00:00 +10°C° 0.1 mm 2 mps 744 mmHg 89%
    01:00 +9°C° 0.1 mm 3 mps 744 mmHg 90%
    02:00 +9°C° 0 mm 2 mps 745 mmHg 90%
    03:00 +8°C° 0 mm 2 mps 745 mmHg 91%
    04:00 +8°C° 0 mm 2 mps 745 mmHg 92%
    05:00 +8°C° 0.1 mm 2 mps 746 mmHg 89%
    06:00 +8°C° 0.1 mm 3 mps 746 mmHg 87%
    07:00 +9°C° 0.1 mm 3 mps 746 mmHg 85%
    08:00 +9°C° 0 mm 3 mps 747 mmHg 79%
    09:00 +10°C° 0 mm 3 mps 747 mmHg 73%
    10:00 +11°C° 0 mm 3 mps 747 mmHg 67%
    11:00 +11°C° 0.1 mm 3 mps 747 mmHg 67%
    12:00 +13°C° 0.1 mm 2 mps 747 mmHg 66%
    13:00 +13°C° 0.1 mm 2 mps 747 mmHg 66%
    14:00 +14°C° 0 mm 2 mps 747 mmHg 63%
    15:00 +15°C° 0 mm 2 mps 747 mmHg 60%
    16:00 +16°C° 0 mm 2 mps 747 mmHg 57%
    17:00 +15°C° 0 mm 2 mps 747 mmHg 62%
    18:00 +14°C° 0 mm 2 mps 747 mmHg 68%
    19:00 +14°C° 0 mm 2 mps 747 mmHg 73%
    20:00 +12°C° 0 mm 2 mps 748 mmHg 77%
    21:00 +10°C° 0 mm 2 mps 748 mmHg 82%
    22:00 +9°C° 0 mm 2 mps 748 mmHg 86%
    23:00 +8°C° 0 mm 2 mps 748 mmHg 86%

    31 May, Friday

    Time Temperature Precipitation Wind Pressure Humidity
    00:00 +8°C° 0 mm 2 mps 748 mmHg 87%
    01:00 +8°C° 0 mm 2 mps 748 mmHg 88%
    02:00 +8°C° 0 mm 2 mps 748 mmHg 87%
    03:00 +8°C° 0 mm 2 mps 749 mmHg 85%
    04:00 +8°C° 0 mm 2 mps 749 mmHg 84%
    05:00 +10°C° 0.1 mm 2 mps 749 mmHg 83%
    06:00 +11°C° 0.1 mm 3 mps 749 mmHg 81%
    07:00 +12°C° 0.1 mm 3 mps 750 mmHg 79%
    08:00 +14°C° 0 mm 3 mps 750 mmHg 74%
    09:00 +16°C° 0 mm 3 mps 750 mmHg 69%
    10:00 +17°C° 0 mm 3 mps 750 mmHg 64%
    11:00 +17°C° 0 mm 3 mps 750 mmHg 62%
    12:00 +18°C° 0 mm 3 mps 750 mmHg 59%
    13:00 +18°C° 0 mm 3 mps 750 mmHg 57%
    14:00 +18°C° 0 mm 2 mps 750 mmHg 56%
    15:00 +18°C° 0 mm 2 mps 750 mmHg 56%
    16:00 +18°C° 0 mm 2 mps 750 mmHg 55%
    17:00 +19°C° 0 mm 1 mps 750 mmHg 59%
    18:00 +18°C° 0 mm 1 mps 750 mmHg 64%
    19:00 +16°C° 0 mm 1 mps 750 mmHg 68%
    20:00 +15°C° 0 mm 1 mps 750 mmHg 70%
    21:00 +14°C° 0 mm 2 mps 750 mmHg 72%
    22:00 +13°C° 0 mm 2 mps 750 mmHg 74%
    23:00 +13°C° 0 mm 2 mps 750 mmHg 79%
    Show more